Location: Conjunto Santa Maria
(19.9513°S, 43.9599°W)
Time: 13:28:40
(UTC+00:00)

OAO 2 Rocket - Pass Details

Date: 21 January 2021
Orbit: 676 x 745 km, 35.0° (Epoch: 03 March)

Event Time Altitude Azimuth Distance (km) Brightness Sun altitude
Rises 23:32:51 0° 236° (SW) 3,187 8.1 -24.2°
Reaches altitude 10° 23:35:21 10° 232° (SW) 2,257 7.0 -24.7°
Maximum altitude 23:40:37 60° 152° (SSE) 843 3.6 -25.7°
Enters shadow 23:40:53 59° 136° (SE) 849 3.6 -25.8°
